Location: ????????
(55.3939°N, 37.4780°E)
Time: 06:17:27
(UTC+00:00)

NOSS 3-4 (C) - Pass Details

Date: 14 April 2026
Orbit: 773 x 1438 km, 63.4° (Epoch: 26 December)

Event Time Altitude Azimuth Distance (km) Brightness Sun altitude
Rises 18:05:19 0° 194° (SSW) 3,246 6.0 -12.3°
Reaches altitude 10° 18:07:49 10° 185° (S) 2,347 5.2 -12.6°
Maximum altitude 18:12:35 34° 121° (ESE) 1,345 3.7 -13.1°
Drops below altitude 10° 18:17:48 10° 59° (ENE) 2,588 5.6 -13.7°
Sets 18:20:41 0° 50° (NE) 3,631 6.4 -14.0°
